Preview of NWS' New Version of Forecast
This preview is not operational and should not be used for support decisions.

Regional Weather Roundup (RWR)

Issued by National Weather Service (NWS)

                            
000
ASUS45 KABQ 170310
RWRNM 
NEW MEXICO REGIONAL WEATHER ROUNDUP
NATIONAL WEATHER SERVICE ALBUQUERQUE NM
900 PM MDT SUN JUN 16 2019

NOTE: "FAIR" MEANS FEW OR NO CLOUDS BELOW 12,000 FEET AGL WITH NO
       SIGNIFICANT WEATHER OR OBSTRUCTIONS TO VISION.

      THIS PRODUCT IS RELEASED AS TWO VERSIONS.  ONE VERSION NEAR
      THE TOP OF THE HOUR CONTAINING PRELIMINARY DATA FROM ALBUQUERQUE
      AND OTHER STATIONS.  A FINAL VERSION WITH ADDITIONAL DATA IS 
      ISSUED ABOUT 10 MINUTES AFTER THE HOUR.
 
NMZ501-503-504-510>518-170400-
NORTHWEST PLATEAU/NORTHCENTRAL MOUNTAINS
  
CITY           SKY/WX    TMP DP  RH WIND       PRES   REMARKS
FARMINGTON     FAIR      73  38  27 N7        30.00R                  
LOS ALAMOS       N/A     68  36  30 SW7       30.13R                  
SANTA FE       FAIR      72  36  26 CALM      30.06R                  
TAOS           TSTM      61  47  59 N12       30.19R                  
ANGEL FIRE     LGT RAIN  49  47  92 E3        30.27R                  

$$
NMZ402-403-502-505>509-170400-
WESTCENTRAL MOUNTAINS/SOUTHWEST MOUNTAINS
  
CITY           SKY/WX    TMP DP  RH WIND       PRES   REMARKS
GALLUP         FAIR      69  39  33 NE6       30.10S                  
GRANTS         CLOUDY    71  36  27 CALM      30.11R                  
SILVER CITY    FAIR      76  24  14 W3        30.00S                  

$$
NMZ407-409-411-412-170400-
SOUTHERN DESERTS
  
CITY           SKY/WX    TMP DP  RH WIND       PRES   REMARKS
DEMING         FAIR      82  28  14 W7        29.91R                  
LAS CRUCES     FAIR      80  31  16 SW6       29.93R                  
HOLLOMAN AFB   FAIR      83  39  21 S5        29.92R                  
ALAMOGORDO     FAIR      77  37  24 SE8       29.91S                  
T OR C         FAIR      88  21   8 S14       29.91R                  

$$
NMZ519>523-170400-
CENTRAL VALLEYS/CENTRAL HIGHLANDS
  
CITY           SKY/WX    TMP DP  RH WIND       PRES   REMARKS
ALBUQUERQUE    MOCLDY    80  38  22 SW6       29.99R                  
DOUBLE EAGLE   MOCLDY    75  37  25 SW12      30.04R                  
MORIARTY ARPT  FAIR      75  39  27 SE9G20    30.08R                  
CLINES CORNERS CLOUDY    63  44  50 E14       30.17R                  
BELEN          FAIR      73  38  28 N6        29.98R                  
SOCORRO        FAIR      81  37  21 SE3       29.94R                  

$$
NMZ524>526-539-540-170400-
SOUTHCENTRAL MOUNTAINS
  
CITY           SKY/WX    TMP DP  RH WIND       PRES   REMARKS
RUIDOSO        MOCLDY    64  45  48 MISG      30.16S                  

$$
NMZ527>531-170400-
NORTHEAST HIGHLANDS/NORTHEAST PLAINS
  
CITY           SKY/WX    TMP DP  RH WIND       PRES   REMARKS
LAS VEGAS      FAIR      60  45  57 S3        30.16R                  
RATON          CLOUDY    61  50  67 N9        30.10R                  
CLAYTON        FAIR      63  53  70 SE10      30.04R                  

$$
NMZ532>537-170400-
EASTCENTRAL PLAINS
  
CITY           SKY/WX    TMP DP  RH WIND       PRES   REMARKS
SANTA ROSA     LGT RAIN  61  59  94 S17       30.04F                  
TUCUMCARI      FAIR      75  51  43 E8        29.96R                  
CANNON AFB     FAIR      72  52  48 E10       30.02R                  
CLOVIS AIRPORT FAIR      70  53  54 E8        30.02R                  

$$
NMZ028-029-538-170400-
SOUTHEAST PLAINS
  
CITY           SKY/WX    TMP DP  RH WIND       PRES   REMARKS
ROSWELL        FAIR      86  43  22 SE10      29.89S                  
ARTESIA        FAIR      82  52  34 E7        29.91S                  
CARLSBAD       FAIR      82  49  31 NE7       29.86R                  
HOBBS          FAIR      79  50  36 E10       29.94R                  


$$